User: anonymous   Login
Location: Unspecified
(0.0000°N, 0.0000°E)
Time: 00:15:21
(UTC+00:00)
Language:

LIBERTAD 1 - Orbit

View from above orbital plane
View from above orbital plane
View from above satellite
View from above satellite

Ground track
Ground track

The orbit data is extracted from the following two-line orbital elements,

1 31128U 07012M   17231.52212979  .00000133  00000-0  39062-4 0  9997
2 31128  98.0857 178.1076 0097108   6.4780 353.7648 14.55870577548646
Epoch (UTC): 19 August 2017 12:31:52
Eccentricity: 0.0097108
inclination: 98.0857°
perigee height: 638 km
apogee height: 775 km
right ascension of ascending node: 178.1076°
argument of perigee: 6.4780°
revolutions per day: 14.55870577
mean anomaly at epoch: 353.7648°
orbit number at epoch: 54864

The dashed part of the orbit path shows where the satellite is in the earth's shadow,  

DLR